23 mai 2022

Temps Code Temps Temp. Vue Des nuages Vent METAR/SPECI
08:55
V
15 °C 10 km+ 9.000 ft 130°   130° 6 kt METAR EHKD 230655Z AUTO 13006KT 100V180 9999 FEW015CB BKN090 OVC097 15/13 Q1003 BLU TEMPO FEW020 SCT080CB BKN090
08:25
V
16 °C 10 km+ 8.700 ft 120°   120° 9 kt METAR EHKD 230625Z AUTO 12009KT 090V160 9999 SCT082 OVC087 16/13 Q1003 BLU TEMPO FEW020 SCT080CB BKN090
07:55
V
16 °C 10 km+ 8.600 ft 110°   110° 8 kt METAR EHKD 230555Z AUTO 11008KT 080V140 9999 -RA FEW021 BKN086 OVC093 16/12 Q1003 BLU TEMPO FEW020 SCT080CB BKN090
07:25
V
15 °C 10 km+ 8.300 ft 100°   100° 7 kt METAR EHKD 230525Z AUTO 10007KT 070V140 9999 OVC083 15/11 Q1004 BLU NOSIG
06:55
V
15 °C 10 km+ 8.900 ft 120°   120° 8 kt METAR EHKD 230455Z AUTO 12008KT 9999 FEW081 BKN089 15/10 Q1004 BLU NOSIG
06:41
V
14 °C 10 km+ 8.100 ft 120°   120° 8 kt METAR EHKD 230441Z AUTO 12008KT 090V150 9999 BKN081 OVC088 14/10 Q1004 BLU NOSIG
06:25
V
14 °C 10 km+ 20.000 ft 130°   130° 8 kt METAR EHKD 230425Z AUTO 13008KT 100V160 9999 OVC200 14/10 Q1005 BLU
05:55
V
13 °C 10 km+ 21.000 ft 130°   130° 7 kt METAR EHKD 230355Z AUTO 13007KT 9999 OVC210 13/10 Q1005 BLU
05:25
V
14 °C 10 km+ 22.000 ft 140°   140° 6 kt METAR EHKD 230325Z AUTO 14006KT 9999 FEW100 OVC220 14/10 Q1006 BLU
04:55
V
14 °C 10 km+ 21.000 ft 130°   130° 8 kt METAR EHKD 230255Z AUTO 13008KT 100V170 9999 OVC210 14/10 Q1006 BLU
04:25
V
15 °C 10 km+ 28.000 ft 130°   130° 8 kt METAR EHKD 230225Z AUTO 13008KT 090V160 9999 SCT110 BKN280 15/10 Q1006 BLU
03:55
V
15 °C 10 km+ 10.000 ft 130°   130° 7 kt METAR EHKD 230155Z AUTO 13007KT 100V160 9999 OVC100 15/10 Q1007 BLU
03:25
V
16 °C 10 km+ 11.000 ft 130°   130° 8 kt METAR EHKD 230125Z AUTO 13008KT 090V160 9999 OVC110 16/10 Q1007 BLU
02:55
V
16 °C 10 km+ 11.000 ft 130°   130° 9 kt METAR EHKD 230055Z AUTO 13009KT 100V170 9999 OVC110 16/10 Q1007 BLU
02:25
V
16 °C 10 km+ 11.000 ft 130°   130° 10 kt METAR EHKD 230025Z AUTO 13010KT 100V160 9999 OVC110 16/10 Q1008 BLU
01:55
V
16 °C 10 km+ 11.000 ft 130°   130° 9 kt METAR EHKD 222355Z AUTO 13009KT 100V160 9999 OVC110 16/10 Q1008 BLU
01:25
V
16 °C 10 km+ 12.000 ft 130°   130° 9 kt METAR EHKD 222325Z AUTO 13009KT 100V160 9999 BKN120 OVC200 16/10 Q1009 BLU
00:55
V
16 °C 10 km+ 21.000 ft 130°   130° 8 kt METAR EHKD 222255Z AUTO 13008KT 100V160 9999 OVC210 16/10 Q1009 BLU
00:25
V
16 °C 10 km+ 21.000 ft 130°   130° 8 kt METAR EHKD 222225Z AUTO 13008KT 100V160 9999 OVC210 16/11 Q1009 BLU

22 mai 2022

Temps Code Temps Temp. Vue Des nuages Vent METAR/SPECI
23:55
V
16 °C 10 km+ 24.000 ft 120°   120° 7 kt METAR EHKD 222155Z AUTO 12007KT 9999 OVC240 16/11 Q1009 BLU
23:25
V
16 °C 10 km+ 23.000 ft 120°   120° 8 kt METAR EHKD 222125Z AUTO 12008KT 9999 FEW073 OVC230 16/11 Q1009 BLU
22:55
V
16 °C 10 km+ 23.000 ft 120°   120° 6 kt METAR EHKD 222055Z AUTO 12006KT 9999 FEW073 OVC230 16/11 Q1010 BLU
22:25
V
17 °C 10 km+ 23.000 ft 110°   110° 6 kt METAR EHKD 222025Z AUTO 11006KT 090V150 9999 OVC230 17/12 Q1010 BLU
21:55
V
17 °C 10 km+ 25.000 ft 110°   110° 7 kt METAR EHKD 221955Z AUTO 11007KT 080V140 9999 FEW074 OVC250 17/12 Q1010 BLU
21:25
V
18 °C 10 km+ 7.600 ft 090°   090° 5 kt METAR EHKD 221925Z AUTO 09005KT 070V130 9999 BKN076 BKN095 OVC260 18/11 Q1010 BLU
20:55
V
18 °C 10 km+ 9.800 ft 110°   110° 7 kt METAR EHKD 221855Z AUTO 11007KT 080V140 9999 OVC098 18/11 Q1011 BLU
20:25
V
19 °C 10 km+ 7.800 ft 120°   120° 8 kt METAR EHKD 221825Z AUTO 12008KT 080V150 9999 OVC078 19/11 Q1011 BLU
19:55
V
19 °C 10 km+ 7.600 ft 120°   120° 10 kt METAR EHKD 221755Z AUTO 12010KT 090V150 9999 OVC076 19/11 Q1011 BLU
19:25
V
19 °C 10 km+ 7.600 ft 120°   120° 8 kt METAR EHKD 221725Z AUTO 12008KT 060V160 9999 FEW042 BKN076 OVC330 19/10 Q1012 BLU
18:55
V
20 °C 10 km+ 4.500 ft 190°   190° 4 kt METAR EHKD 221655Z AUTO 19004KT 9999 SCT039 BKN045 20/11 Q1012 BLU NOSIG
18:25
V
20 °C 10 km+ 32.000 ft Var   Var 2 kt METAR EHKD 221625Z AUTO VRB02KT 9999 FEW051 OVC320 20/10 Q1012 BLU NOSIG
17:55
V
19 °C 10 km+ 34.000 ft 020°   020° 5 kt METAR EHKD 221555Z AUTO 02005KT 340V070 9999 SCT100 OVC340 19/10 Q1012 BLU NOSIG
17:25
V
19 °C 10 km+ 10.000 ft 040°   040° 6 kt METAR EHKD 221525Z AUTO 04006KT 010V080 9999 BKN100 OVC310 19/11 Q1013 BLU NOSIG
17:05
V
19 °C 10 km+ 27.000 ft 030°   030° 6 kt METAR EHKD 221505Z AUTO 03006KT 350V060 9999 OVC270 19/11 Q1013 BLU NOSIG
16:55
V
18 °C 10 km+ 30.000 ft 050°   050° 7 kt METAR EHKD 221455Z AUTO 05007KT 020V090 9999 OVC300 18/11 Q1013 BLU NOSIG
16:25
V
18 °C 10 km+ 29.000 ft 050°   050° 6 kt METAR EHKD 221425Z AUTO 05006KT 010V090 9999 OVC290 18/11 Q1014 BLU NOSIG
15:55
V
19 °C 10 km+ 28.000 ft Var   Var 4 kt METAR EHKD 221355Z AUTO VRB04KT 9999 FEW034 BKN280 19/10 Q1014 BLU NOSIG
15:25
V
18 °C 10 km+ 30.000 ft 260°   260° 4 kt METAR EHKD 221325Z AUTO 26004KT 190V310 9999 FEW037 SCT043 BKN300 18/11 Q1014 BLU NOSIG
14:56
V
18 °C 10 km+ 30.000 ft 240°   240° 3 kt METAR EHKD 221256Z AUTO 24003KT 180V300 9999 FEW046 OVC300 18/10 Q1014 BLU NOSIG
14:55
V
18 °C 10 km+ 30.000 ft 260°   260° 4 kt METAR EHKD 221255Z AUTO 26004KT 210V320 9999 OVC300 18/10 Q1014 BLU
14:25
V
18 °C 10 km+ 33.000 ft 270°   270° 5 kt METAR EHKD 221225Z AUTO 27005KT 230V320 9999 BKN330 18/11 Q1015 BLU
13:55
V
17 °C 10 km+ 28.000 ft 270°   270° 8 kt METAR EHKD 221155Z AUTO 27008KT 230V290 9999 BKN280 17/10 Q1015 BLU
13:25
V
17 °C 10 km+ - 260°   260° 9 kt METAR EHKD 221125Z AUTO 26009KT 220V290 9999 SCT290 17/10 Q1015 BLU
13:16
V
18 °C 10 km+ - 260°   260° 9 kt METAR EHKD 221116Z AUTO 26009KT 220V290 9999 FEW300 18/11 Q1015 BLU
12:55
V
18 °C 10 km+ - 260°   260° 8 kt METAR EHKD 221055Z AUTO 26008KT 230V300 9999 FEW380 18/11 Q1016 BLU NOSIG
12:25
V
18 °C 10 km+ - 260°   260° 7 kt METAR EHKD 221025Z AUTO 26007KT 210V290 9999 FEW350 18/12 Q1016 BLU NOSIG
11:55
V
18 °C 10 km+ - 240°   240° 8 kt METAR EHKD 220955Z AUTO 24008KT 200V280 9999 SCT350 18/11 Q1016 BLU NOSIG
11:25
V
18 °C 10 km+ 23.000 ft 200°   200° 6 kt METAR EHKD 220925Z AUTO 20006KT 120V260 9999 OVC230 18/10 Q1016 BLU NOSIG
10:55
V
17 °C 10 km+ 20.000 ft 210°   210° 7 kt METAR EHKD 220855Z AUTO 21007KT 150V260 9999 OVC200 17/10 Q1017 BLU NOSIG
10:25
V
16 °C 10 km+ 26.000 ft 220°   220° 9 kt METAR EHKD 220825Z AUTO 22009KT 180V250 9999 BKN260 BKN360 16/10 Q1017 BLU NOSIG
09:55
V
16 °C 10 km+ 24.000 ft 210°   210° 8 kt METAR EHKD 220755Z AUTO 21008KT 170V240 9999 OVC240 16/10 Q1017 BLU NOSIG
09:25
V
16 °C 10 km+ - 200°   200° 7 kt METAR EHKD 220725Z AUTO 20007KT 170V240 9999 SCT270 16/10 Q1017 BLU NOSIG
08:55
V
14 °C 10 km+ - 200°   200° 7 kt METAR EHKD 220655Z AUTO 20007KT 9999 NCD 14/10 Q1017 BLU NOSIG
08:25
V
13 °C 10 km+ - 190°   190° 6 kt METAR EHKD 220625Z AUTO 19006KT 160V220 9999 NCD 13/11 Q1017 BLU NOSIG
08:06
V
13 °C 10 km+ - 180°   180° 5 kt METAR EHKD 220606Z AUTO 18005KT 160V220 9999 NCD 13/11 Q1017 BLU NOSIG
07:55
V
12 °C 10 km+ - 190°   190° 5 kt METAR EHKD 220555Z AUTO 19005KT 160V220 9999 NCD 12/11 Q1017 BLU NOSIG
07:43
V
12 °C 8 km - 190°   190° 4 kt METAR EHKD 220543Z AUTO 19004KT 8000 BR NCD 12/11 Q1017 BLU NOSIG
07:39
M
11 °C 7 km - 190°   190° 4 kt METAR EHKD 220539Z AUTO 19004KT 160V220 7000 BR NCD 11/11 Q1017 WHT NOSIG
07:28
M
11 °C 7 km - 190°   190° 5 kt METAR EHKD 220528Z AUTO 19005KT 7000 BR NCD 11/11 Q1017 WHT NOSIG
07:25
M
11 °C 6 km - 180°   180° 5 kt METAR EHKD 220525Z AUTO 18005KT 6000 BR NCD 11/11 Q1017 WHT BECMG CAVOK
06:55
M
10 °C 5 km - 180°   180° 4 kt METAR EHKD 220455Z AUTO 18004KT 5000 BR NCD 10/10 Q1017 WHT BECMG CAVOK
06:41
M
9 °C 5 km - 170°   170° 3 kt METAR EHKD 220441Z AUTO 17003KT 5000 BR NCD 09/09 Q1017 WHT BECMG CAVOK
06:37
M
9 °C 5 km 24.000 ft 170°   170° 3 kt METAR EHKD 220437Z AUTO 17003KT 5000 BR BKN240 09/09 Q1017 WHT
06:31
I
9 °C 4,3 km 24.000 ft 180°   180° 4 kt METAR EHKD 220431Z AUTO 18004KT 4300 BR BKN240 09/09 Q1017 GRN
06:25
I
9 °C 3,2 km 22.000 ft 190°   190° 4 kt METAR EHKD 220425Z AUTO 19004KT 3200 BR BKN220 09/09 Q1017 YLO
06:12
I
9 °C 3,4 km 22.000 ft 190°   190° 5 kt METAR EHKD 220412Z AUTO 19005KT 3400 BR OVC220 09/08 Q1017 YLO
06:03
I
8 °C 4,1 km 22.000 ft 190°   190° 5 kt METAR EHKD 220403Z AUTO 19005KT 4100 BR OVC220 08/08 Q1017 GRN
05:57
I
8 °C 3,3 km 22.000 ft 180°   180° 5 kt METAR EHKD 220357Z AUTO 18005KT 3300 BR OVC220 08/08 Q1017 YLO
05:55
M
8 °C 5 km 22.000 ft 180°   180° 4 kt METAR EHKD 220355Z AUTO 18004KT 5000 BR OVC220 08/08 Q1017 WHT
05:35
M
9 °C 5 km 22.000 ft 180°   180° 4 kt METAR EHKD 220335Z AUTO 18004KT 5000 BR OVC220 09/08 Q1017 WHT
05:27
I
9 °C 4,4 km 22.000 ft 190°   190° 5 kt METAR EHKD 220327Z AUTO 19005KT 4400 BR OVC220 09/08 Q1017 GRN
05:25
L
9 °C 1,4 km 22.000 ft 190°   190° 5 kt METAR EHKD 220325Z AUTO 19005KT 1400 BR OVC220 09/08 Q1017 AMB
05:13
I
9 °C 3,3 km 22.000 ft 180°   180° 4 kt METAR EHKD 220313Z AUTO 18004KT 3300 BR OVC220 09/08 Q1017 YLO
05:07
M
9 °C 7 km 22.000 ft 170°   170° 4 kt METAR EHKD 220307Z AUTO 17004KT 7000 BR OVC220 09/09 Q1017 WHT
04:55
M
9 °C 5 km 22.000 ft 170°   170° 4 kt METAR EHKD 220255Z AUTO 17004KT 5000 BR OVC220 09/08 Q1017 WHT
04:41
I
9 °C 1,8 km 23.000 ft 180°   180° 3 kt METAR EHKD 220241Z AUTO 18003KT 1800 BR OVC230 09/09 Q1018 YLO
04:32
L
9 °C 650 m 24.000 ft 180°   180° 2 kt METAR EHKD 220232Z AUTO 18002KT 0650 FG BKN240 09/09 Q1018 RED
04:25
L
9 °C 900 m - 190°   190° 3 kt METAR EHKD 220225Z AUTO 19003KT 0900 FG NCD 09/09 Q1018 AMB
04:17
I
9 °C 3,1 km - 190°   190° 4 kt METAR EHKD 220217Z AUTO 19004KT 3100 BR NCD 09/09 Q1018 YLO
03:55
M
9 °C 5 km 24.000 ft 190°   190° 5 kt METAR EHKD 220155Z AUTO 19005KT 5000 BR OVC240 09/09 Q1018 WHT
03:33
M
9 °C 5 km 24.000 ft 190°   190° 4 kt METAR EHKD 220133Z AUTO 19004KT 5000 BR OVC240 09/09 Q1018 WHT
03:27
I
9 °C 4,4 km 24.000 ft 190°   190° 4 kt METAR EHKD 220127Z AUTO 19004KT 4400 BR OVC240 09/08 Q1018 GRN
03:25
I
9 °C 2,1 km 24.000 ft 200°   200° 4 kt METAR EHKD 220125Z AUTO 20004KT 2100 BR OVC240 09/08 Q1018 YLO
03:17
L
9 °C 1 km 26.000 ft 200°   200° 5 kt METAR EHKD 220117Z AUTO 20005KT 1000 BR BKN260 OVC310 09/08 Q1018 AMB
03:08
L
9 °C 600 m 31.000 ft 200°   200° 5 kt METAR EHKD 220108Z AUTO 20005KT 0600 FG BKN310 09/08 Q1018 RED
02:55
I
9 °C 4,5 km 31.000 ft 190°   190° 4 kt METAR EHKD 220055Z AUTO 19004KT 4500 BR OVC310 09/09 Q1018 GRN
02:42
L
9 °C 800 m - 200°   200° 3 kt METAR EHKD 220042Z AUTO 20003KT 0800 FG NCD 09/09 Q1018 AMB
02:36
L
9 °C 750 m - 200°   200° 3 kt METAR EHKD 220036Z AUTO 20003KT 0750 FG NCD 09/09 Q1018 RED
02:27
L
9 °C 1,1 km - 200°   200° 3 kt METAR EHKD 220027Z AUTO 20003KT 1100 BR FEW230/// 09/09 Q1018 AMB RMK CB INFO NOT AVBL
02:25
I
9 °C 2,8 km - 200°   200° 3 kt METAR EHKD 220025Z AUTO 20003KT 2800 BR SCT220 09/09 Q1019 YLO
02:16
M
9 °C 6 km 22.000 ft 210°   210° 3 kt METAR EHKD 220016Z AUTO 21003KT 6000 BR OVC220 09/08 Q1019 WHT
02:05
I
9 °C 2,1 km 22.000 ft 220°   220° 4 kt METAR EHKD 220005Z AUTO 22004KT 2100 BR OVC220 09/09 Q1019 YLO
02:01
L
9 °C 1 km 22.000 ft 200°   200° 5 kt METAR EHKD 220001Z AUTO 20005KT 1000 BR BKN220 OVC280 09/09 Q1019 AMB
01:55
L
9 °C 800 m 21.000 ft 200°   200° 4 kt METAR EHKD 212355Z AUTO 20004KT 0800 FG BKN210 OVC280 09/09 Q1019 AMB
01:38
L
9 °C 750 m - 190°   190° 3 kt METAR EHKD 212338Z AUTO 19003KT 0750 FG SCT230 09/09 Q1019 RED
01:30
L
9 °C 1 km 24.000 ft 190°   190° 2 kt METAR EHKD 212330Z AUTO 19002KT 1000 BR BKN240 09/09 Q1019 AMB
01:25
L
9 °C 600 m 23.000 ft 220°   220° 2 kt METAR EHKD 212325Z AUTO 22002KT 0600 FG OVC230 09/09 Q1019 RED
01:19
L
9 °C 750 m 23.000 ft 210°   210° 2 kt METAR EHKD 212319Z AUTO 21002KT 0750 FG BKN230 09/09 Q1019 RED
01:14
L
9 °C 900 m - 200°   200° 2 kt METAR EHKD 212314Z AUTO 20002KT 0900 FG FEW270 09/08 Q1019 AMB
01:06
M
9 °C 6 km - 180°   180° 3 kt METAR EHKD 212306Z AUTO 18003KT 6000 BR NCD 09/09 Q1019 WHT
00:55
M
10 °C 7 km 26.000 ft Var   Var 1 kt METAR EHKD 212255Z AUTO VRB01KT 7000 BR OVC260 10/09 Q1019 WHT
00:37
I
9 °C 4,5 km 25.000 ft Var   Var 1 kt METAR EHKD 212237Z AUTO VRB01KT 4500 BR OVC250 09/09 Q1019 GRN
00:31
M
9 °C 6 km 25.000 ft 200°   200° 2 kt METAR EHKD 212231Z AUTO 20002KT 6000 BR OVC250 09/09 Q1019 WHT
00:25
I
10 °C 3,8 km 25.000 ft 220°   220° 3 kt METAR EHKD 212225Z AUTO 22003KT 3800 BR OVC250 10/09 Q1019 GRN
00:15
I
10 °C 3,6 km 25.000 ft 210°   210° 4 kt METAR EHKD 212215Z AUTO 21004KT 3600 BR OVC250 10/09 Q1019 YLO
00:07
V
9 °C 8 km 25.000 ft 210°   210° 4 kt METAR EHKD 212207Z AUTO 21004KT 8000 BR OVC250 09/09 Q1019 BLU
00:03
I
10 °C 3,5 km 24.000 ft 210°   210° 3 kt METAR EHKD 212203Z AUTO 21003KT 3500 BR BKN240 10/09 Q1019 YLO

21 mai 2022

Temps Code Temps Temp. Vue Des nuages Vent METAR/SPECI
23:55
I
10 °C 1,6 km 24.000 ft 230°   230° 3 kt METAR EHKD 212155Z AUTO 23003KT 200V280 1600 BR OVC240 10/09 Q1019 YLO
23:42
M
9 °C 6 km 24.000 ft 200°   200° 5 kt METAR EHKD 212142Z AUTO 20005KT 6000 BR OVC240 09/08 Q1019 WHT
23:38
V
10 °C 9 km 25.000 ft 200°   200° 4 kt METAR EHKD 212138Z AUTO 20004KT 9000 BR BKN250 10/09 Q1019 BLU
23:29
M
10 °C 6 km - 190°   190° 3 kt METAR EHKD 212129Z AUTO 19003KT 6000 BR SCT260 10/09 Q1020 WHT
23:25
V
10 °C 10 km+ - 190°   190° 2 kt METAR EHKD 212125Z AUTO 19002KT 9999 SCT260 10/09 Q1020 BLU
23:17
M
10 °C 5 km - 210°   210° 2 kt METAR EHKD 212117Z AUTO 21002KT 5000 BR NCD 10/09 Q1019 WHT
23:13
I
10 °C 3,1 km - 220°   220° 3 kt METAR EHKD 212113Z AUTO 22003KT 3100 BR FEW260 10/09 Q1020 YLO
23:07
M
10 °C 7 km - 220°   220° 3 kt METAR EHKD 212107Z AUTO 22003KT 7000 BR FEW120 SCT260 10/09 Q1020 WHT
22:55
V
11 °C 10 km+ 12.000 ft 210°   210° 3 kt METAR EHKD 212055Z AUTO 21003KT 9999 FEW007 BKN120 11/10 Q1020 BLU
22:43
M
10 °C 5 km 25.000 ft 230°   230° 3 kt METAR EHKD 212043Z AUTO 23003KT 5000 BR FEW007 BKN250 10/10 Q1020 WHT
22:25
V
11 °C 10 km+ - 220°   220° 4 kt METAR EHKD 212025Z AUTO 22004KT 9999 FEW008 11/10 Q1020 BLU
21:55
V
11 °C 10 km+ - 250°   250° 3 kt METAR EHKD 211955Z AUTO 25003KT 9999 FEW120 11/10 Q1020 BLU
21:41
V
11 °C 10 km+ - 260°   260° 3 kt METAR EHKD 211941Z AUTO 26003KT 9999 FEW009 11/10 Q1020 BLU
21:30
V
12 °C 10 km+ - 260°   260° 4 kt METAR EHKD 211930Z AUTO 26004KT 9999 FEW009 SCT010 12/10 Q1020 GRN
21:25
V
12 °C 10 km+ - 260°   260° 4 kt METAR EHKD 211925Z AUTO 26004KT 230V290 9999 NCD 12/10 Q1020 BLU
21:08
V
12 °C 10 km+ - 250°   250° 5 kt METAR EHKD 211908Z AUTO 25005KT 9999 FEW009 SCT130 12/10 Q1020 BLU
21:01
I
12 °C 10 km+ 900 ft 260°   260° 5 kt METAR EHKD 211901Z AUTO 26005KT 9999 BKN009 BKN130 12/10 Q1020 GRN
20:55
V
13 °C 10 km+ - 260°   260° 6 kt METAR EHKD 211855Z AUTO 26006KT 9999 FEW010 SCT130 13/10 Q1020 BLU
20:31
M
13 °C 10 km+ 1.300 ft 260°   260° 8 kt METAR EHKD 211831Z AUTO 26008KT 9999 SCT011 BKN013 BKN130 13/10 Q1020 GRN
20:27
V
13 °C 10 km+ 13.000 ft 270°   270° 8 kt METAR EHKD 211827Z AUTO 27008KT 9999 SCT011 SCT013 OVC130 13/10 Q1020 GRN
20:10
V
13 °C 10 km+ 13.000 ft 260°   260° 6 kt METAR EHKD 211810Z AUTO 26006KT 240V310 9999 SCT011 OVC130 13/11 Q1020 GRN
20:06
V
13 °C 10 km+ 13.000 ft 270°   270° 6 kt METAR EHKD 211806Z AUTO 27006KT 240V310 9999 FEW011 OVC130 13/10 Q1020 BLU
19:55
V
13 °C 10 km+ 13.000 ft 250°   250° 8 kt METAR EHKD 211755Z AUTO 25008KT 220V280 9999 FEW011 OVC130 13/10 Q1020 BLU
19:29
V
14 °C 10 km+ 13.000 ft 260°   260° 8 kt METAR EHKD 211729Z AUTO 26008KT 230V290 9999 FEW011 OVC130 14/10 Q1020 BLU
19:25
V
14 °C 10 km+ 14.000 ft 260°   260° 8 kt METAR EHKD 211725Z AUTO 26008KT 9999 FEW011 OVC140 14/10 Q1020 BLU NOSIG
18:55
V
14 °C 10 km+ 13.000 ft 260°   260° 8 kt METAR EHKD 211655Z AUTO 26008KT 230V290 9999 FEW011 SCT014 OVC130 14/10 Q1020 GRN NOSIG
18:44
V
14 °C 10 km+ 11.000 ft 270°   270° 8 kt METAR EHKD 211644Z AUTO 27008KT 230V320 9999 FEW011 SCT014 OVC110 14/11 Q1020 GRN NOSIG
18:40
V
14 °C 10 km+ 11.000 ft 270°   270° 9 kt METAR EHKD 211640Z AUTO 27009KT 230V300 9999 FEW012 SCT015 OVC110 14/11 Q1020 WHT NOSIG
18:36
V
14 °C 10 km+ 12.000 ft 270°   270° 9 kt METAR EHKD 211636Z AUTO 27009KT 230V290 9999 SCT012 SCT015 OVC120 14/10 Q1020 GRN NOSIG
18:27
V
15 °C 10 km+ 11.000 ft 270°   270° 9 kt METAR EHKD 211627Z AUTO 27009KT 230V310 9999 FEW012 SCT015 OVC110 15/11 Q1020 WHT NOSIG
18:25
V
14 °C 10 km+ 11.000 ft 260°   260° 10 kt METAR EHKD 211625Z AUTO 26010KT 230V310 9999 FEW013 OVC110 14/10 Q1020 BLU NOSIG
18:17
V
14 °C 10 km+ 11.000 ft 260°   260° 10 kt METAR EHKD 211617Z AUTO 26010KT 230V300 9999 FEW013 OVC110 14/10 Q1020 BLU NOSIG
18:13
V
14 °C 10 km+ 11.000 ft 260°   260° 10 kt METAR EHKD 211613Z AUTO 26010KT 230V300 9999 FEW013 SCT015 OVC110 14/10 Q1020 WHT NOSIG
17:55
V
14 °C 10 km+ 12.000 ft 260°   260° 11 kt METAR EHKD 211555Z AUTO 26011KT 9999 OVC120 14/10 Q1020 BLU NOSIG
17:36
V
14 °C 10 km+ 13.000 ft 260°   260° 10 kt METAR EHKD 211536Z AUTO 26010KT 230V290 9999 FEW013 OVC130 14/10 Q1020 BLU NOSIG
17:25
V
14 °C 10 km+ 13.000 ft 260°   260° 10 kt METAR EHKD 211525Z AUTO 26010KT 230V300 9999 FEW012 OVC130 14/10 Q1021 BLU NOSIG
17:17
V
14 °C 10 km+ 13.000 ft 270°   270° 10 kt METAR EHKD 211517Z AUTO 27010KT 220V300 9999 FEW013 OVC130 14/10 Q1021 BLU NOSIG
17:12
V
14 °C 10 km+ 13.000 ft 270°   270° 10 kt METAR EHKD 211512Z AUTO 27010KT 230V300 9999 SCT014 OVC130 14/10 Q1021 GRN NOSIG
16:55
V
14 °C 10 km+ 12.000 ft 270°   270° 10 kt METAR EHKD 211455Z AUTO 27010KT 240V310 9999 FEW015 OVC120 14/10 Q1021 BLU NOSIG
16:25
V
14 °C 10 km+ 13.000 ft 270°   270° 10 kt METAR EHKD 211425Z AUTO 27010KT 230V310 9999 FEW013 OVC130 14/10 Q1021 BLU NOSIG
15:55
V
14 °C 10 km+ 12.000 ft 270°   270° 12 kt METAR EHKD 211355Z AUTO 27012KT 230V310 9999 FEW013 OVC120 14/11 Q1021 BLU NOSIG
15:25
V
15 °C 10 km+ 12.000 ft 270°   270° 13 kt METAR EHKD 211325Z AUTO 27013KT 230V310 9999 FEW012 OVC120 15/11 Q1021 BLU NOSIG
14:55
V
15 °C 10 km+ 13.000 ft 260°   260° 14 kt METAR EHKD 211255Z AUTO 26014KT 9999 FEW013 OVC130 15/11 Q1021 BLU NOSIG
14:25
V
15 °C 10 km+ 13.000 ft 260°   260° 13 kt METAR EHKD 211225Z AUTO 26013KT 230V300 9999 FEW012 OVC130 15/11 Q1021 BLU
13:55
V
15 °C 10 km+ 14.000 ft 270°   270° 14 kt METAR EHKD 211155Z AUTO 27014KT 240V310 9999 FEW014 OVC140 15/11 Q1020 BLU
13:25
V
15 °C 10 km+ 15.000 ft 270°   270° 14 kt METAR EHKD 211125Z AUTO 27014KT 230V310 9999 FEW012 OVC150 15/11 Q1020 BLU
13:00
V
14 °C 10 km+ 15.000 ft 270°   270° 15 kt METAR EHKD 211100Z AUTO 27015KT 240V310 9999 FEW011 OVC150 14/11 Q1020 BLU
12:55
V
14 °C 10 km+ 15.000 ft 270°   270° 15 kt METAR EHKD 211055Z AUTO 27015KT 240V300 9999 SCT011 OVC150 14/11 Q1020 GRN
12:25
V
14 °C 10 km+ 17.000 ft 270°   270° 15 kt METAR EHKD 211025Z AUTO 27015KT 230V300 9999 FEW011 OVC170 14/11 Q1020 BLU
11:55
V
15 °C 10 km+ 20.000 ft 270°   270° 15 kt METAR EHKD 210955Z AUTO 27015KT 240V310 9999 OVC200 15/11 Q1020 BLU NOSIG
11:25
V
15 °C 10 km+ 22.000 ft 270°   270° 16 kt METAR EHKD 210925Z AUTO 27016KT 230V310 9999 OVC220 15/11 Q1019 BLU NOSIG
10:55
V
14 °C 10 km+ 26.000 ft 270°   270° 18 kt METAR EHKD 210855Z AUTO 27018KT 240V300 9999 OVC260 14/11 Q1019 BLU NOSIG
10:25
V
14 °C 10 km+ 24.000 ft 270°   270° 16 kt METAR EHKD 210825Z AUTO 27016KT 230V310 9999 OVC240 14/11 Q1019 BLU NOSIG
09:55
V
14 °C 10 km+ - 270°   270° 17 kt METAR EHKD 210755Z AUTO 27017KT 240V300 9999 SCT300 14/11 Q1019 BLU NOSIG
09:25
V
14 °C 10 km+ - 270°   270° 17 kt METAR EHKD 210725Z AUTO 27017KT 240V300 9999 NCD 14/11 Q1018 BLU NOSIG
08:55
V
14 °C 10 km+ - 270°   270° 17 kt METAR EHKD 210655Z AUTO 27017KT 240V300 9999 NCD 14/11 Q1018 BLU NOSIG
08:25
V
14 °C 10 km+ - 270°   270° 18 kt METAR EHKD 210625Z AUTO 27018KT 9999 NCD 14/10 Q1018 BLU NOSIG
07:55
V
13 °C 10 km+ - 270°   270° 16 kt METAR EHKD 210555Z AUTO 27016KT 240V310 9999 NCD 13/10 Q1017 BLU NOSIG
07:25
V
13 °C 10 km+ 27.000 ft 270°   270° 17 kt METAR EHKD 210525Z AUTO 27017KT 230V300 9999 OVC270 13/10 Q1017 BLU NOSIG
06:55
V
13 °C 10 km+ - 270°   270° 17 kt METAR EHKD 210455Z AUTO 27017KT 250V310 9999 NCD 13/10 Q1017 BLU NOSIG
06:40
V
13 °C 10 km+ - 270°   270° 15 kt METAR EHKD 210440Z AUTO 27015KT 9999 NCD 13/10 Q1017 BLU NOSIG
Données plus anciennes

Télécharge notre application

Un accès facile à toute la météo aéronautique sur ton téléphone portable et ta tablette.
Avec de nombreuses fonctionnalités non disponibles sur le site Web, comme la prise en charge hors ligne et une liste personnelle d'aéroports.

Nous et des tiers suivons ton comportement sur Internet sur notre site Web à l'aide de cookies. Si tu continues, nous supposons que tu acceptes notre politique en matière de cookies. Apprendre plus